Lid_Strength_Index
14 14 14 14 14 14 14 14 14 14 14 14 14 14 14 14 14 14 14 14 14 14 14 14 14 13 13 13 12 12 12 13 14 14 13 13 13 13 12 11 11 11 11
14 14 14 14 14 14 14 14 14 15 14 15 15 15 15 15 15 15 15 14 14 15 14 14 14 14 14 13 13 13 13 12 13 15 14 14 14 13 13 13 12 12 12
14 14 14 14 14 14 14 14 14 15 15 16 16 16 16 16 16 15 15 15 15 15 15 15 15 15 14 14 14 14 13 13 13 14 14 14 14 13 13 12 13 12 11
14 14 13 13 13 13 14 15 16 16 16 16 16 16 16 16 16 16 15 15 15 15 15 15 15 15 15 14 14 14 13 14 14 14 14 15 14 13 13 13 13 12 13
13 13 13 13 13 14 15 15 16 16 16 17 17 17 17 16 16 15 14 14 14 14 14 14 14 14 13 13 13 13 13 14 14 14 15 15 15 14 14 12 13 12 12
13 13 13 13 14 15 16 16 16 16 17 16 16 17 17 16 13 12 12 13 14 14 15 14 14 14 14 13 12 12 12 14 15 15 15 16 15 15 14 14 14 14 15
13 13 14 15 16 16 16 16 17 17 17 17 17 16 17 16 13 12 12 13 14 14 15 15 15 14 14 15 14 13 13 12 12 13 15 15 15 15 15 16 16 16 16
14 15 15 17 17 16 17 17 17 17 17 17 17 17 17 16 13 12 12 13 14 14 15 15 15 15 15 14 14 14 14 14 13 13 13 13 13 13 13 14 15 15 14
15 15 16 17 18 17 19 18 17 18 18 18 17 17 18 18 14 13 13 14 15 15 14 14 14 14 13 12 13 14 13 13 11 11 11 11 10 10 11 12 14 15 17
15 15 16 17 19 19 18 19 18 19 18 18 18 18 19 19 16 14 13 13 15 14 14 13 12 12 11 10 11 13 14 14 13 13 12 12 11 11 10 11 12 15 15
16 16 17 17 19 19 19 19 20 20 19 21 20 20 19 18 18 14 12 12 13 13 13 13 12 10 10 10 9 11 12 11 11 12 12 11 11 11 11 11 11 12 14
17 17 19 20 19 19 23 21 21 22 22 22 22 20 18 17 15 13 11 10 10 12 12 12 12 10 9 9 10 10 9 10 11 12 13 13 13 13 12 12 12 11 11
19 21 22 21 19 20 22 21 20 20 22 21 20 20 19 16 16 13 11 10 9 10 11 10 10 11 11 13 13 12 13 14 14 14 14 13 12 12 12 12 12 12 12
22 21 21 21 20 20 19 19 21 21 21 20 20 20 18 17 14 13 13 11 10 10 11 13 13 15 15 15 16 16 16 16 16 16 16 14 13 13 14 13 14 14 15
22 21 20 20 20 20 20 20 19 18 19 21 20 19 17 15 14 11 10 10 10 11 15 19 20 20 20 19 19 19 18 18 18 17 17 17 15 15 14 13 14 15 16
21 20 20 20 20 20 20 20 16 13 12 11 10 10 12 11 10 10 9 9 10 12 19 23 22 22 21 21 21 20 19 19 18 17 17 16 16 15 15 14 13 14 16
22 20 20 20 21 21 22 21 21 18 15 13 12 11 11 11 10 10 10 10 14 16 23 23 23 22 22 21 21 20 20 18 17 17 17 16 15 15 15 14 14 14 14
25 22 23 22 23 23 23 22 22 23 23 22 18 15 13 12 12 11 12 16 22 22 24 24 23 22 21 20 20 20 19 19 18 17 17 16 15 13 14 14 14 14 13
25 25 25 25 25 24 23 23 23 25 25 25 23 20 18 15 14 14 16 24 26 24 23 23 22 21 20 20 20 19 19 19 18 18 16 15 14 14 14 13 13 13 13
29 25 24 25 25 25 25 25 24 26 25 25 24 24 24 23 23 25 25 26 26 25 24 24 23 22 21 20 20 20 19 19 18 17 16 15 15 14 14 13 12 12 11
28 28 25 26 26 26 26 27 25 26 26 26 25 23 16 17 23 27 27 27 26 25 25 24 23 23 22 21 21 20 20 19 18 17 15 15 16 15 14 13 12 11 10
29 29 28 28 26 26 27 27 27 27 26 26 24 23 17 23 27 28 28 28 26 26 25 25 24 23 23 22 21 21 21 20 18 17 15 16 16 15 14 13 13 12 11
29 29 29 29 28 28 28 28 27 26 25 25 24 24 25 26 28 29 28 27 27 27 26 26 25 25 23 23 21 21 21 19 18 16 16 17 17 16 15 15 14 13 12
27 27 25 26 25 24 24 25 24 24 24 23 24 25 27 28 29 30 29 28 28 28 27 27 26 26 25 24 22 21 21 19 17 14 15 17 17 16 16 15 15 14 14
28 26 25 24 24 23 23 23 23 23 23 23 24 26 29 30 30 30 30 30 30 29 28 28 27 26 26 25 25 24 22 19 14 14 16 17 17 17 17 16 16 16 15
26 25 26 25 24 24 24 24 24 23 24 24 26 29 30 30 30 30 30 30 29 29 29 28 27 27 27 25 24 21 18 15 12 14 16 17 18 17 17 17 17 17 17